| time (UTC) | temp C | wind direction | speed KPH | gust KPH | rain 1hr cm | rain 24hr cm | rain mn cm | humidity % | barometer mb |
| 20260503002545 | 18 | 334 | 3.2 | 9.7 | 0.00 | 0.71 | 0.28 | 46 | 1019.7 |
| 20260503002045 | 18 | 300 | 1.6 | 8.0 | 0.00 | 0.71 | 0.28 | 44 | 1019.8 |
| 20260503001545 | 18 | 261 | 1.6 | 8.0 | 0.00 | 0.71 | 0.28 | 45 | 1019.7 |
| 20260503001046 | 18 | 330 | 1.6 | 8.0 | 0.00 | 0.71 | 0.28 | 44 | 1019.7 |
| 20260503000543 | 19 | 14 | 1.6 | 12.9 | 0.00 | 0.71 | 0.28 | 44 | 1019.7 |
| 20260503000047 | 19 | 353 | 3.2 | 12.9 | 0.00 | 0.71 | 0.28 | 44 | 1019.6 |
| 20260502235544 | 19 | 354 | 6.4 | 12.9 | 0.00 | 0.71 | 0.28 | 45 | 1019.6 |
| 20260502235041 | 18 | 330 | 0.0 | 11.3 | 0.00 | 0.71 | 0.28 | 45 | 1019.7 |
| 20260502234541 | 19 | 350 | 4.8 | 12.9 | 0.00 | 0.71 | 0.28 | 44 | 1019.6 |
| 20260502234043 | 20 | 14 | 6.4 | 11.3 | 0.00 | 0.71 | 0.28 | 43 | 1019.6 |
| 20260502233540 | 20 | 17 | 6.4 | 16.1 | 0.00 | 0.71 | 0.28 | 43 | 1019.6 |
| 20260502233040 | 20 | 11 | 8.0 | 16.1 | 0.00 | 0.71 | 0.28 | 42 | 1019.6 |
| 20260502232539 | 20 | 3 | 1.6 | 9.7 | 0.00 | 0.71 | 0.28 | 43 | 1019.5 |
| 20260502232039 | 20 | 34 | 0.0 | 4.8 | 0.00 | 0.71 | 0.28 | 43 | 1019.6 |
| 20260502231538 | 20 | 12 | 1.6 | 8.0 | 0.00 | 0.71 | 0.28 | 42 | 1019.7 |
| 20260502231037 | 20 | 291 | 3.2 | 8.0 | 0.00 | 0.71 | 0.28 | 42 | 1019.7 |
| 20260502230539 | 20 | 93 | 0.0 | 6.4 | 0.00 | 0.71 | 0.28 | 40 | 1019.7 |
| 20260502230037 | 20 | 19 | 0.0 | 14.5 | 0.00 | 0.71 | 0.28 | 42 | 1019.7 |
| 20260502225535 | 20 | 38 | 3.2 | 14.5 | 0.00 | 0.71 | 0.28 | 43 | 1019.7 |
| 20260502225035 | 19 | 115 | 4.8 | 9.7 | 0.00 | 0.71 | 0.28 | 45 | 1019.7 |
| 20260502224535 | 19 | 74 | 0.0 | 11.3 | 0.00 | 0.71 | 0.28 | 44 | 1019.8 |
| 20260502224035 | 19 | 155 | 4.8 | 12.9 | 0.00 | 0.71 | 0.28 | 44 | 1019.8 |
| 20260502223538 | 19 | 180 | 3.2 | 12.9 | 0.00 | 0.71 | 0.28 | 43 | 1019.8 |
| 20260502223034 | 18 | 153 | 4.8 | 12.9 | 0.00 | 0.71 | 0.28 | 44 | 1019.8 |
| 20260502222534 | 18 | 181 | 1.6 | 11.3 | 0.00 | 0.71 | 0.28 | 44 | 1019.9 |
| 20260502222034 | 19 | 144 | 4.8 | 11.3 | 0.00 | 0.71 | 0.28 | 44 | 1019.9 |
| 20260502221533 | 18 | 117 | 0.0 | 9.7 | 0.00 | 0.71 | 0.28 | 46 | 1020.0 |
| 20260502221035 | 18 | 154 | 3.2 | 11.3 | 0.00 | 0.71 | 0.28 | 46 | 1020.0 |
| 20260502220533 | 19 | 132 | 6.4 | 11.3 | 0.00 | 0.71 | 0.28 | 43 | 1020.2 |
| 20260502220034 | 19 | 194 | 1.6 | 11.3 | 0.00 | 0.71 | 0.28 | 45 | 1020.3 |
| 20260502215531 | 18 | 250 | 4.8 | 11.3 | 0.00 | 0.71 | 0.28 | 45 | 1020.4 |
| 20260502215032 | 19 | 214 | 6.4 | 11.3 | 0.00 | 0.71 | 0.28 | 45 | 1020.5 |
| 20260502214531 | 18 | 140 | 3.2 | 8.0 | 0.00 | 0.71 | 0.28 | 46 | 1020.6 |
| 20260502214033 | 18 | 51 | 1.6 | 6.4 | 0.00 | 0.71 | 0.28 | 48 | 1020.6 |
| 20260502213531 | 18 | 19 | 3.2 | 8.0 | 0.00 | 0.71 | 0.28 | 47 | 1020.7 |
| 20260502213039 | 18 | 115 | 0.0 | 8.0 | 0.00 | 0.71 | 0.28 | 47 | 1020.8 |
| 20260502212530 | 18 | 42 | 0.0 | 9.7 | 0.00 | 0.71 | 0.28 | 47 | 1020.9 |
| 20260502212029 | 18 | 317 | 3.2 | 9.7 | 0.00 | 0.71 | 0.28 | 46 | 1020.9 |
| 20260502211531 | 18 | 78 | 1.6 | 4.8 | 0.00 | 0.71 | 0.28 | 48 | 1021.0 |
| 20260502211028 | 18 | 90 | 1.6 | 11.3 | 0.00 | 0.71 | 0.28 | 49 | 1021.1 |
| 20260502210527 | 18 | 63 | 3.2 | 11.3 | 0.00 | 0.71 | 0.28 | 48 | 1021.2 |
| 20260502210027 | 18 | 95 | 1.6 | 11.3 | 0.00 | 0.71 | 0.28 | 49 | 1021.2 |
| 20260502205526 | 18 | 57 | 4.8 | 11.3 | 0.00 | 0.71 | 0.28 | 50 | 1021.3 |
| 20260502205026 | 18 | 57 | 4.8 | 11.3 | 0.00 | 0.71 | 0.28 | 51 | 1021.3 |
| 20260502204526 | 17 | 144 | 1.6 | 14.5 | 0.00 | 0.71 | 0.28 | 50 | 1021.4 |
| 20260502204026 | 18 | 119 | 8.0 | 14.5 | 0.00 | 0.71 | 0.28 | 51 | 1021.5 |
| 20260502203524 | 17 | 136 | 3.2 | 11.3 | 0.00 | 0.71 | 0.28 | 51 | 1021.6 |
| 20260502203024 | 17 | 205 | 4.8 | 11.3 | 0.00 | 0.71 | 0.28 | 50 | 1021.5 |
| 20260502202526 | 17 | 249 | 0.0 | 6.4 | 0.00 | 0.71 | 0.28 | 52 | 1021.7 |
| 20260502202024 | 17 | 9 | 1.6 | 9.7 | 0.00 | 0.71 | 0.28 | 49 | 1021.8 |
| 20260502201527 | 17 | 4 | 4.8 | 9.7 | 0.00 | 0.71 | 0.28 | 51 | 1021.9 |
| 20260502201023 | 17 | 357 | 3.2 | 9.7 | 0.00 | 0.71 | 0.28 | 50 | 1022.0 |
| 20260502200523 | 17 | 344 | 1.6 | 11.3 | 0.00 | 0.71 | 0.28 | 50 | 1022.0 |
| 20260502200022 | 17 | 47 | 3.2 | 11.3 | 0.00 | 0.71 | 0.28 | 51 | 1022.1 |
| 20260502195521 | 16 | 346 | 1.6 | 8.0 | 0.00 | 0.71 | 0.28 | 52 | 1022.2 |
| 20260502195020 | 16 | 354 | 1.6 | 8.0 | 0.00 | 0.71 | 0.28 | 51 | 1022.2 |
| 20260502194522 | 16 | 348 | 4.8 | 9.7 | 0.00 | 0.71 | 0.28 | 53 | 1022.2 |
| 20260502194020 | 16 | 305 | 3.2 | 9.7 | 0.00 | 0.71 | 0.28 | 53 | 1022.4 |
| 20260502193520 | 16 | 145 | 0.0 | 6.4 | 0.00 | 0.71 | 0.28 | 53 | 1022.5 |
| 20260502193020 | 16 | 178 | 0.0 | 6.4 | 0.00 | 0.71 | 0.28 | 53 | 1022.5 |
| 20260502192519 | 16 | 178 | 1.6 | 4.8 | 0.00 | 0.71 | 0.28 | 52 | 1022.6 |
| 20260502192020 | 16 | 184 | 1.6 | 8.0 | 0.00 | 0.71 | 0.28 | 53 | 1022.6 |
| 20260502191523 | 16 | 165 | 3.2 | 9.7 | 0.00 | 0.71 | 0.28 | 54 | 1022.7 |
| 20260502191019 | 16 | 281 | 1.6 | 6.4 | 0.00 | 0.71 | 0.28 | 53 | 1022.7 |
| 20260502190519 | 16 | 281 | 0.0 | 4.8 | 0.00 | 0.71 | 0.28 | 53 | 1022.7 |
| 20260502190022 | 16 | 281 | 1.6 | 8.0 | 0.00 | 0.71 | 0.28 | 53 | 1022.7 |
| 20260502185518 | 16 | 286 | 3.2 | 9.7 | 0.00 | 0.71 | 0.28 | 52 | 1022.8 |
| 20260502185018 | 16 | 343 | 1.6 | 9.7 | 0.00 | 0.71 | 0.28 | 52 | 1022.8 |
| 20260502184525 | 16 | 336 | 3.2 | 11.3 | 0.00 | 0.71 | 0.28 | 54 | 1022.9 |
| 20260502184017 | 16 | 323 | 1.6 | 11.3 | 0.00 | 0.71 | 0.28 | 55 | 1022.9 |
| 20260502183517 | 16 | 15 | 1.6 | 9.7 | 0.00 | 0.71 | 0.28 | 57 | 1023.0 |
| 20260502183016 | 15 | 298 | 4.8 | 9.7 | 0.00 | 0.71 | 0.28 | 54 | 1023.0 |
| 20260502182515 | 15 | 240 | 1.6 | 9.7 | 0.00 | 0.71 | 0.28 | 55 | 1023.0 |
| 20260502182015 | 15 | 187 | 0.0 | 9.7 | 0.00 | 0.71 | 0.28 | 55 | 1023.1 |
| 20260502181515 | 16 | 213 | 3.2 | 9.7 | 0.00 | 0.71 | 0.28 | 56 | 1023.1 |
| 20260502181014 | 16 | 99 | 3.2 | 9.7 | 0.00 | 0.71 | 0.28 | 57 | 1023.1 |
| 20260502180514 | 16 | 195 | 0.0 | 11.3 | 0.00 | 0.71 | 0.28 | 58 | 1023.2 |
| 20260502170502 | 12 | 227 | 1.6 | 6.4 | 0.00 | 0.71 | 0.28 | 67 | 1023.7 |
| 20260502164058 | 12 | 227 | 0.0 | 1.6 | 0.00 | 0.71 | 0.28 | 71 | 1023.6 |
| 20260502163556 | 12 | 227 | 0.0 | 1.6 | 0.00 | 0.71 | 0.28 | 71 | 1023.6 |
| 20260502163056 | 12 | 227 | 0.0 | 3.2 | 0.00 | 0.71 | 0.28 | 75 | 1023.6 |
| 20260502162555 | 11 | 227 | 0.0 | 3.2 | 0.00 | 0.71 | 0.28 | 71 | 1023.6 |
| 20260502162056 | 12 | 227 | 0.0 | 3.2 | 0.00 | 0.71 | 0.28 | 72 | 1023.5 |
| 20260502161558 | 11 | 227 | 0.0 | 3.2 | 0.00 | 0.71 | 0.28 | 74 | 1023.5 |
| 20260502161053 | 11 | 227 | 0.0 | 6.4 | 0.00 | 0.71 | 0.28 | 74 | 1023.6 |
| 20260502160553 | 11 | 227 | 0.0 | 8.0 | 0.00 | 0.71 | 0.28 | 75 | 1023.6 |
| 20260502152045 | 10 | 227 | 1.6 | 8.0 | 0.00 | 0.71 | 0.28 | 81 | 1023.3 |
| 20260502151600 | 10 | 227 | 1.6 | 8.0 | 0.00 | 0.71 | 0.28 | 82 | 1023.3 |
| 20260502151044 | 10 | 215 | 4.8 | 8.0 | 0.00 | 0.71 | 0.28 | 82 | 1023.3 |
| 20260502150544 | 10 | 238 | 3.2 | 9.7 | 0.00 | 0.71 | 0.28 | 83 | 1023.2 |
| 20260502130600 | 9 | 292 | 0.0 | 4.8 | 0.00 | 0.76 | 0.25 | 91 | 1022.4 |
| 20260502130104 | 9 | 292 | 3.2 | 4.8 | 0.00 | 0.76 | 0.25 | 91 | 1022.3 |
| 20260502123555 | 8 | 331 | 0.0 | 11.3 | 0.00 | 0.81 | 0.25 | 90 | 1021.9 |
| 20260502123054 | 9 | 296 | 6.4 | 11.3 | 0.00 | 0.81 | 0.25 | 91 | 1021.9 |
| 20260502122554 | 9 | 296 | 3.2 | 9.7 | 0.00 | 0.81 | 0.25 | 91 | 1021.9 |
| 20260502122053 | 9 | 296 | 4.8 | 9.7 | 0.00 | 0.81 | 0.25 | 91 | 1021.9 |
| 20260502121553 | 9 | 304 | 1.6 | 11.3 | 0.00 | 0.81 | 0.25 | 91 | 1021.9 |
| 20260502121054 | 9 | 298 | 4.8 | 11.3 | 0.00 | 0.81 | 0.25 | 90 | 1021.7 |
| 20260502120555 | 9 | 305 | 4.8 | 9.7 | 0.00 | 0.81 | 0.25 | 90 | 1021.6 |
| 20260502115550 | 8 | 302 | 4.8 | 11.3 | 0.00 | 0.81 | 0.25 | 90 | 1021.5 |
| 20260502115050 | 9 | 307 | 3.2 | 11.3 | 0.00 | 0.81 | 0.25 | 90 | 1021.4 |
| 20260502114554 | 9 | 310 | 1.6 | 12.9 | 0.03 | 0.81 | 0.25 | 90 | 1021.3 |
| 20260502114050 | 9 | 311 | 4.8 | 12.9 | 0.05 | 0.81 | 0.25 | 90 | 1021.3 |
| 20260502113549 | 9 | 286 | 1.6 | 8.0 | 0.05 | 0.81 | 0.25 | 90 | 1021.3 |
| 20260502113051 | 9 | 286 | 0.0 | 6.4 | 0.05 | 0.81 | 0.25 | 91 | 1021.3 |
| 20260502112548 | 9 | 286 | 1.6 | 9.7 | 0.08 | 0.81 | 0.25 | 90 | 1021.3 |
| 20260502112048 | 9 | 286 | 4.8 | 9.7 | 0.08 | 0.81 | 0.25 | 90 | 1021.4 |
| 20260502111548 | 9 | 286 | 1.6 | 6.4 | 0.08 | 0.81 | 0.25 | 90 | 1021.4 |
| 20260502111048 | 9 | 286 | 1.6 | 6.4 | 0.08 | 0.81 | 0.25 | 90 | 1021.4 |
| 20260502110551 | 9 | 286 | 1.6 | 6.4 | 0.08 | 0.81 | 0.25 | 90 | 1021.4 |
| 20260502110055 | 9 | 265 | 0.0 | 3.2 | 0.08 | 0.81 | 0.25 | 89 | 1021.3 |
| 20260502105547 | 9 | 265 | 0.0 | 3.2 | 0.10 | 1.12 | 0.25 | 89 | 1021.3 |
| 20260502105046 | 9 | 265 | 0.0 | 3.2 | 0.08 | 1.09 | 0.23 | 88 | 1021.4 |
| 20260502104549 | 9 | 265 | 0.0 | 6.4 | 0.10 | 1.09 | 0.23 | 88 | 1021.4 |
| 20260502104048 | 9 | 265 | 1.6 | 8.0 | 0.10 | 1.07 | 0.20 | 88 | 1021.4 |
| 20260502103546 | 9 | 260 | 1.6 | 9.7 | 0.10 | 1.07 | 0.20 | 89 | 1021.4 |
| 20260502103046 | 9 | 260 | 1.6 | 9.7 | 0.10 | 1.07 | 0.20 | 88 | 1021.5 |
| 20260502102546 | 9 | 294 | 1.6 | 9.7 | 0.08 | 1.04 | 0.18 | 89 | 1021.5 |
| 20260502102046 | 9 | 293 | 4.8 | 9.7 | 0.08 | 1.04 | 0.18 | 88 | 1021.6 |
| 20260502101549 | 9 | 276 | 6.4 | 9.7 | 0.08 | 1.04 | 0.18 | 88 | 1021.6 |
| 20260502101046 | 9 | 262 | 4.8 | 9.7 | 0.08 | 1.04 | 0.18 | 88 | 1021.6 |
| 20260502100543 | 9 | 276 | 4.8 | 9.7 | 0.10 | 1.04 | 0.18 | 87 | 1021.5 |
| 20260502091033 | 10 | 210 | 0.0 | 1.6 | 0.10 | 1.35 | 0.10 | 85 | 1020.8 |
| 20260502090536 | 10 | 210 | 0.0 | 1.6 | 0.08 | 1.32 | 0.08 | 84 | 1020.8 |
| 20260502071523 | 11 | 254 | 0.0 | 8.0 | 0.00 | 1.24 | 0.00 | 80 | 1020.5 |
| 20260502071023 | 11 | 254 | 0.0 | 8.0 | 0.00 | 1.24 | 0.00 | 80 | 1020.5 |
| 20260502070522 | 11 | 254 | 1.6 | 9.7 | 0.00 | 1.24 | 0.00 | 80 | 1020.6 |
| 20260502070021 | 11 | 254 | 6.4 | 11.3 | 0.00 | 1.24 | 0.00 | 82 | 1020.7 |
| 20260502065521 | 11 | 224 | 6.4 | 11.3 | 0.00 | 1.24 | 0.00 | 84 | 1020.5 |
| 20260502065019 | 11 | 245 | 8.0 | 12.9 | 0.00 | 1.24 | 0.00 | 85 | 1020.5 |
| 20260502064537 | 11 | 276 | 6.4 | 12.9 | 0.00 | 1.24 | 0.00 | 85 | 1020.5 |
| 20260502064021 | 11 | 265 | 4.8 | 9.7 | 0.00 | 1.24 | 0.00 | 85 | 1020.4 |
| 20260502063516 | 11 | 213 | 1.6 | 9.7 | 0.00 | 1.24 | 0.00 | 84 | 1020.2 |
| 20260502063020 | 11 | 213 | 4.8 | 9.7 | 0.00 | 1.24 | 0.00 | 84 | 1020.1 |
| 20260502062517 | 11 | 191 | 6.4 | 9.7 | 0.00 | 1.24 | 0.00 | 83 | 1020.0 |
| 20260502062017 | 11 | 207 | 3.2 | 9.7 | 0.00 | 1.24 | 0.00 | 83 | 1020.0 |
| 20260502061513 | 11 | 207 | 4.8 | 9.7 | 0.00 | 1.24 | 0.00 | 83 | 1019.9 |
| 20260502061011 | 11 | 237 | 6.4 | 11.3 | 0.00 | 1.24 | 0.00 | 82 | 1019.8 |
| 20260502060511 | 11 | 242 | 6.4 | 11.3 | 0.00 | 1.24 | 0.00 | 82 | 1019.8 |
| 20260502060010 | 11 | 208 | 3.2 | 9.7 | 0.00 | 1.24 | 0.00 | 82 | 1019.7 |
| 20260502055510 | 11 | 208 | 4.8 | 9.7 | 0.00 | 1.24 | 1.24 | 82 | 1019.7 |
| 20260502055009 | 11 | 186 | 3.2 | 9.7 | 0.00 | 1.24 | 1.24 | 82 | 1019.7 |
| 20260502054509 | 11 | 186 | 1.6 | 9.7 | 0.00 | 1.24 | 1.24 | 83 | 1019.7 |
| 20260502054009 | 11 | 186 | 1.6 | 9.7 | 0.00 | 1.24 | 1.24 | 84 | 1019.6 |
| 20260502053509 | 11 | 186 | 3.2 | 9.7 | 0.00 | 1.24 | 1.24 | 85 | 1019.6 |
| 20260502053009 | 11 | 186 | 3.2 | 8.0 | 0.00 | 1.24 | 1.24 | 86 | 1019.7 |
| 20260502052509 | 11 | 186 | 1.6 | 9.7 | 0.00 | 1.24 | 1.24 | 86 | 1019.7 |
| 20260502052009 | 11 | 186 | 4.8 | 9.7 | 0.00 | 1.24 | 1.24 | 86 | 1019.6 |
| 20260502051508 | 11 | 215 | 1.6 | 8.0 | 0.00 | 1.24 | 1.24 | 86 | 1019.7 |
| 20260502051006 | 11 | 215 | 4.8 | 11.3 | 0.00 | 1.24 | 1.24 | 86 | 1019.5 |
| 20260502050506 | 11 | 247 | 4.8 | 11.3 | 0.00 | 1.24 | 1.24 | 85 | 1019.5 |
| 20260502050012 | 11 | 258 | 6.4 | 12.9 | 0.00 | 1.24 | 1.24 | 85 | 1019.4 |
| 20260502045505 | 11 | 268 | 4.8 | 12.9 | 0.00 | 1.24 | 1.24 | 86 | 1019.3 |
| 20260502045006 | 11 | 317 | 6.4 | 11.3 | 0.00 | 1.24 | 1.24 | 85 | 1019.1 |
| 20260502044507 | 11 | 315 | 4.8 | 9.7 | 0.00 | 1.24 | 1.24 | 86 | 1019.0 |
| 20260502044002 | 11 | 309 | 4.8 | 8.0 | 0.00 | 1.24 | 1.24 | 86 | 1019.1 |
| 20260502043502 | 11 | 313 | 1.6 | 8.0 | 0.00 | 1.24 | 1.24 | 86 | 1019.0 |
| 20260502043002 | 11 | 313 | 1.6 | 11.3 | 0.00 | 1.24 | 1.24 | 86 | 1019.0 |
| 20260502042503 | 12 | 294 | 4.8 | 11.3 | 0.00 | 1.24 | 1.24 | 87 | 1019.0 |
| 20260502042002 | 12 | 316 | 4.8 | 11.3 | 0.00 | 1.24 | 1.24 | 88 | 1018.9 |
| 20260502041502 | 12 | 319 | 4.8 | 9.7 | 0.00 | 1.24 | 1.24 | 88 | 1018.9 |
| 20260502041000 | 12 | 315 | 4.8 | 9.7 | 0.00 | 1.24 | 1.24 | 88 | 1018.9 |
| 20260502040500 | 12 | 321 | 6.4 | 11.3 | 0.00 | 1.24 | 1.24 | 88 | 1018.8 |
| 20260502040108 | 12 | 330 | 4.8 | 11.3 | 0.00 | 1.24 | 1.24 | 88 | 1018.8 |
| 20260502035559 | 12 | 306 | 3.2 | 8.0 | 0.00 | 1.24 | 1.24 | 87 | 1018.7 |
| 20260502035103 | 12 | 306 | 3.2 | 9.7 | 0.00 | 1.24 | 1.24 | 87 | 1018.7 |
| 20260502034559 | 12 | 306 | 4.8 | 9.7 | 0.00 | 1.24 | 1.24 | 87 | 1018.6 |
| 20260502034058 | 12 | 276 | 3.2 | 8.0 | 0.00 | 1.24 | 1.24 | 87 | 1018.6 |
| 20260502033557 | 12 | 231 | 1.6 | 6.4 | 0.00 | 1.24 | 1.24 | 85 | 1018.4 |
| 20260502033059 | 12 | 215 | 1.6 | 6.4 | 0.00 | 1.24 | 1.24 | 86 | 1018.4 |
| 20260502032559 | 12 | 215 | 0.0 | 3.2 | 0.00 | 1.24 | 1.24 | 87 | 1018.2 |
| 20260502032057 | 12 | 215 | 0.0 | 6.4 | 0.00 | 1.24 | 1.24 | 86 | 1018.2 |
| 20260502031629 | 12 | 215 | 0.0 | 8.0 | 0.00 | 1.24 | 1.24 | 86 | 1018.4 |
| 20260502031056 | 12 | 215 | 3.2 | 11.3 | 0.03 | 1.24 | 1.24 | 85 | 1018.4 |
| 20260502030557 | 12 | 215 | 4.8 | 11.3 | 0.03 | 1.24 | 1.24 | 84 | 1018.4 |
| 20260502030059 | 12 | 188 | 4.8 | 14.5 | 0.03 | 1.24 | 1.24 | 82 | 1018.4 |
| 20260502025554 | 12 | 164 | 3.2 | 14.5 | 0.03 | 1.24 | 1.24 | 83 | 1018.3 |
| 20260502025054 | 12 | 179 | 1.6 | 6.4 | 0.03 | 1.24 | 1.24 | 82 | 1018.3 |
| 20260502024554 | 12 | 184 | 1.6 | 9.7 | 0.03 | 1.24 | 1.24 | 84 | 1018.3 |
| 20260502024053 | 12 | 172 | 4.8 | 11.3 | 0.03 | 1.24 | 1.24 | 86 | 1018.2 |
| 20260502023554 | 12 | 148 | 4.8 | 12.9 | 0.03 | 1.24 | 1.24 | 87 | 1018.1 |
| 20260502023055 | 12 | 127 | 4.8 | 12.9 | 0.08 | 1.24 | 1.24 | 88 | 1017.9 |
| 20260502022551 | 12 | 141 | 6.4 | 11.3 | 0.20 | 1.24 | 1.24 | 88 | 1017.7 |
| 20260502022051 | 12 | 109 | 0.0 | 9.7 | 0.36 | 1.24 | 1.24 | 88 | 1017.7 |
| 20260502021552 | 12 | 109 | 3.2 | 9.7 | 0.33 | 1.22 | 1.22 | 87 | 1017.5 |
| 20260502021052 | 12 | 109 | 4.8 | 9.7 | 0.36 | 1.22 | 1.22 | 87 | 1017.3 |
| 20260502020551 | 12 | 38 | 0.0 | 4.8 | 0.36 | 1.22 | 1.22 | 88 | 1017.4 |
| 20260502020107 | 12 | 38 | 3.2 | 4.8 | 0.41 | 1.22 | 1.22 | 87 | 1017.5 |
| 20260502015555 | 12 | 13 | 0.0 | 9.7 | 0.43 | 1.22 | 1.22 | 87 | 1017.5 |
| 20260502015051 | 12 | 329 | 1.6 | 9.7 | 0.43 | 1.22 | 1.22 | 85 | 1017.7 |
| 20260502014554 | 12 | 359 | 4.8 | 14.5 | 0.43 | 1.22 | 1.22 | 85 | 1017.9 |
| 20260502014053 | 12 | 23 | 6.4 | 20.9 | 0.43 | 1.22 | 1.22 | 83 | 1017.8 |
| 20260502013549 | 12 | 28 | 9.7 | 22.5 | 0.43 | 1.22 | 1.22 | 82 | 1017.8 |
| 20260502013050 | 12 | 355 | 11.3 | 22.5 | 0.36 | 1.14 | 1.14 | 80 | 1017.7 |
| 20260502012548 | 13 | 342 | 11.3 | 22.5 | 0.23 | 1.02 | 1.02 | 77 | 1017.6 |
| 20260502012048 | 14 | 31 | 8.0 | 16.1 | 0.10 | 0.89 | 0.89 | 74 | 1017.5 |
| 20260502011551 | 14 | 150 | 4.8 | 16.1 | 0.10 | 0.89 | 0.89 | 72 | 1016.9 |
| 20260502011047 | 15 | 106 | 6.4 | 16.1 | 0.08 | 0.86 | 0.86 | 69 | 1016.8 |
| 20260502010543 | 15 | 161 | 6.4 | 25.7 | 0.05 | 0.84 | 0.84 | 65 | 1016.6 |
| 20260502010042 | 16 | 137 | 9.7 | 25.7 | 0.00 | 0.79 | 0.79 | 60 | 1016.4 |
| 20260502005541 | 16 | 155 | 12.9 | 24.1 | 0.00 | 0.79 | 0.79 | 55 | 1016.2 |
| 20260502005042 | 16 | 137 | 14.5 | 24.1 | 0.00 | 0.79 | 0.79 | 55 | 1016.0 |
| 20260502004547 | 16 | 130 | 12.9 | 22.5 | 0.00 | 0.79 | 0.79 | 54 | 1016.0 |
| 20260502004040 | 17 | 125 | 8.0 | 20.9 | 0.00 | 0.79 | 0.79 | 53 | 1016.0 |
| 20260502003542 | 17 | 105 | 11.3 | 20.9 | 0.00 | 0.79 | 0.79 | 53 | 1015.9 |
| 20260502003040 | 17 | 130 | 9.7 | 19.3 | 0.00 | 0.79 | 0.79 | 54 | 1015.9 |